When you browse on this site, cookies collect data to enhance your experience and personalize the content and advertising you see.
Visit our Privacy Policy to learn more. By continuing to use the site, you agree to this use of cookies and data.
  • In Czech Republic
  • List of Countries
  • For 7 days
  • Water Temperature
  • Satellite Maps
  • Weather Map
  • Weather Widgets
  • user-avatar
    Login

    Hourly Weather Almunecar

    Today, 16 January, Wednesday

    Time Temperature Precipitation Wind Pressure Humidity
    00:00 +12°C° 0 mm 1 mps 763 mmHg 96%
    01:00 +11°C° 0 mm 1 mps 763 mmHg 96%
    02:00 +11°C° 0 mm 1 mps 763 mmHg 96%
    03:00 +11°C° 0 mm 1 mps 762 mmHg 96%
    04:00 +11°C° 0 mm 1 mps 762 mmHg 95%
    05:00 +11°C° 0 mm 1 mps 762 mmHg 95%
    06:00 +10°C° 0 mm 1 mps 762 mmHg 95%
    07:00 +11°C° 0 mm 1 mps 762 mmHg 91%
    08:00 +13°C° 0 mm 1 mps 762 mmHg 87%
    09:00 +14°C° 0 mm 1 mps 762 mmHg 82%
    10:00 +15°C° 0 mm 1 mps 762 mmHg 77%
    11:00 +16°C° 0 mm 2 mps 762 mmHg 72%
    12:00 +17°C° 0 mm 2 mps 762 mmHg 66%
    13:00 +17°C° 0 mm 3 mps 761 mmHg 66%
    14:00 +17°C° 0 mm 3 mps 761 mmHg 65%
    15:00 +17°C° 0 mm 3 mps 761 mmHg 64%
    16:00 +14°C° 0 mm 3 mps 761 mmHg 72%
    17:00 +13°C° 0 mm 3 mps 761 mmHg 79%
    18:00 +11°C° 0 mm 3 mps 761 mmHg 86%
    19:00 +11°C° 0 mm 3 mps 761 mmHg 88%
    20:00 +11°C° 0 mm 3 mps 761 mmHg 89%
    21:00 +10°C° 0 mm 3 mps 762 mmHg 90%
    22:00 +10°C° 0 mm 3 mps 761 mmHg 90%
    23:00 +10°C° 0 mm 3 mps 761 mmHg 90%

    Tomorrow, 17 January, Thursday

    Time Temperature Precipitation Wind Pressure Humidity
    00:00 +9°C° 0 mm 2 mps 761 mmHg 90%
    01:00 +9°C° 0 mm 2 mps 761 mmHg 90%
    02:00 +9°C° 0 mm 2 mps 761 mmHg 90%
    03:00 +8°C° 0 mm 2 mps 761 mmHg 90%
    04:00 +8°C° 0 mm 3 mps 761 mmHg 89%
    05:00 +8°C° 0 mm 3 mps 760 mmHg 89%
    06:00 +8°C° 0 mm 3 mps 760 mmHg 88%
    07:00 +9°C° 0 mm 3 mps 761 mmHg 84%
    08:00 +10°C° 0 mm 3 mps 761 mmHg 79%
    09:00 +11°C° 0 mm 3 mps 761 mmHg 74%
    10:00 +12°C° 0 mm 3 mps 761 mmHg 68%
    11:00 +13°C° 0 mm 3 mps 761 mmHg 62%
    12:00 +15°C° 0 mm 2 mps 761 mmHg 55%
    13:00 +14°C° 0 mm 3 mps 760 mmHg 55%
    14:00 +16°C° 0 mm 3 mps 760 mmHg 54%
    15:00 +16°C° 0 mm 3 mps 760 mmHg 54%
    16:00 +13°C° 0 mm 3 mps 760 mmHg 61%
    17:00 +13°C° 0 mm 2 mps 760 mmHg 68%
    18:00 +12°C° 0 mm 2 mps 760 mmHg 74%
    19:00 +10°C° 0 mm 2 mps 761 mmHg 77%
    20:00 +10°C° 0 mm 2 mps 761 mmHg 79%
    21:00 +9°C° 0 mm 2 mps 762 mmHg 82%
    22:00 +9°C° 0 mm 2 mps 762 mmHg 83%
    23:00 +8°C° 0 mm 2 mps 762 mmHg 85%

    Day after tomorrow, 18 January, Friday

    Time Temperature Precipitation Wind Pressure Humidity
    00:00 +8°C° 0 mm 2 mps 762 mmHg 86%
    01:00 +8°C° 0 mm 2 mps 762 mmHg 86%
    02:00 +7°C° 0 mm 2 mps 762 mmHg 86%
    03:00 +7°C° 0 mm 2 mps 762 mmHg 85%
    04:00 +7°C° 0 mm 2 mps 762 mmHg 85%
    05:00 +7°C° 0 mm 2 mps 762 mmHg 84%
    06:00 +7°C° 0 mm 2 mps 761 mmHg 84%
    07:00 +9°C° 0 mm 1 mps 762 mmHg 79%
    08:00 +11°C° 0 mm 1 mps 762 mmHg 73%
    09:00 +12°C° 0 mm 1 mps 763 mmHg 68%
    10:00 +13°C° 0 mm 1 mps 763 mmHg 65%
    11:00 +14°C° 0 mm 2 mps 763 mmHg 62%
    12:00 +15°C° 0 mm 2 mps 762 mmHg 59%
    13:00 +15°C° 0 mm 2 mps 762 mmHg 59%
    14:00 +15°C° 0 mm 2 mps 762 mmHg 59%
    15:00 +14°C° 0 mm 3 mps 761 mmHg 58%
    16:00 +13°C° 0 mm 3 mps 761 mmHg 63%
    17:00 +12°C° 0 mm 3 mps 762 mmHg 68%
    18:00 +11°C° 0 mm 4 mps 762 mmHg 72%
    19:00 +11°C° 0 mm 4 mps 762 mmHg 73%
    20:00 +10°C° 0 mm 4 mps 763 mmHg 74%
    21:00 +10°C° 0 mm 4 mps 763 mmHg 74%
    22:00 +8°C° 0 mm 4 mps 763 mmHg 73%
    23:00 +8°C° 0 mm 4 mps 763 mmHg 73%

    19 January, Saturday

    Time Temperature Precipitation Wind Pressure Humidity
    00:00 +8°C° 0 mm 5 mps 763 mmHg 72%
    01:00 +8°C° 0 mm 5 mps 763 mmHg 74%
    02:00 +8°C° 0 mm 5 mps 763 mmHg 77%
    03:00 +7°C° 0 mm 5 mps 763 mmHg 80%
    04:00 +7°C° 0 mm 5 mps 762 mmHg 81%
    05:00 +7°C° 0 mm 5 mps 762 mmHg 81%
    06:00 +7°C° 0 mm 5 mps 762 mmHg 81%
    07:00 +8°C° 0 mm 5 mps 763 mmHg 76%
    08:00 +9°C° 0 mm 5 mps 763 mmHg 70%
    09:00 +10°C° 0 mm 5 mps 763 mmHg 64%
    10:00 +13°C° 0 mm 5 mps 763 mmHg 62%
    11:00 +14°C° 0 mm 6 mps 763 mmHg 59%
    12:00 +15°C° 0 mm 6 mps 763 mmHg 56%
    13:00 +15°C° 0 mm 6 mps 762 mmHg 61%
    14:00 +14°C° 0 mm 6 mps 762 mmHg 66%
    15:00 +14°C° 0 mm 6 mps 761 mmHg 72%
    16:00 +14°C° 0 mm 6 mps 761 mmHg 76%
    17:00 +13°C° 0 mm 6 mps 761 mmHg 80%
    18:00 +13°C° 0 mm 6 mps 761 mmHg 84%
    19:00 +13°C° 0.2 mm 6 mps 761 mmHg 85%
    20:00 +13°C° 0.2 mm 6 mps 761 mmHg 86%
    21:00 +13°C° 0.2 mm 5 mps 761 mmHg 87%
    22:00 +13°C° 0.4 mm 6 mps 760 mmHg 89%
    23:00 +13°C° 0.4 mm 6 mps 760 mmHg 91%

    20 January, Sunday

    Time Temperature Precipitation Wind Pressure Humidity
    00:00 +13°C° 0.4 mm 6 mps 760 mmHg 93%
    01:00 +13°C° 0.2 mm 6 mps 759 mmHg 94%
    02:00 +13°C° 0.2 mm 6 mps 758 mmHg 94%
    03:00 +13°C° 0.2 mm 6 mps 758 mmHg 94%
    04:00 +13°C° 0 mm 6 mps 758 mmHg 94%
    05:00 +11°C° 0 mm 6 mps 758 mmHg 94%
    06:00 +11°C° 0 mm 7 mps 757 mmHg 94%
    07:00 +11°C° 0 mm 7 mps 758 mmHg 92%
    08:00 +12°C° 0 mm 7 mps 758 mmHg 91%
    09:00 +12°C° 0 mm 7 mps 758 mmHg 89%
    10:00 +14°C° 0 mm 7 mps 758 mmHg 81%
    11:00 +14°C° 0 mm 7 mps 759 mmHg 73%
    12:00 +15°C° 0 mm 7 mps 759 mmHg 64%
    13:00 +15°C° 0 mm 7 mps 759 mmHg 64%
    14:00 +15°C° 0 mm 7 mps 758 mmHg 63%
    15:00 +15°C° 0 mm 7 mps 758 mmHg 62%
    16:00 +14°C° 0 mm 7 mps 759 mmHg 70%
    17:00 +12°C° 0 mm 7 mps 759 mmHg 78%
    18:00 +11°C° 0 mm 7 mps 760 mmHg 86%
    19:00 +10°C° 0 mm 6 mps 761 mmHg 86%
    20:00 +10°C° 0 mm 6 mps 762 mmHg 87%
    21:00 +10°C° 0 mm 6 mps 762 mmHg 87%
    22:00 +9°C° 0 mm 5 mps 762 mmHg 84%
    23:00 +9°C° 0 mm 5 mps 763 mmHg 82%

    21 January, Monday

    Time Temperature Precipitation Wind Pressure Humidity
    00:00 +10°C° 0 mm 4 mps 763 mmHg 79%
    01:00 +8°C° 0 mm 4 mps 763 mmHg 77%
    02:00 +8°C° 0 mm 4 mps 763 mmHg 75%
    03:00 +8°C° 0 mm 4 mps 763 mmHg 73%
    04:00 +7°C° 0 mm 4 mps 763 mmHg 73%
    05:00 +7°C° 0 mm 4 mps 763 mmHg 74%
    06:00 +7°C° 0 mm 4 mps 763 mmHg 74%
    07:00 +8°C° 0 mm 4 mps 763 mmHg 69%
    08:00 +10°C° 0 mm 4 mps 764 mmHg 64%
    09:00 +10°C° 0 mm 4 mps 764 mmHg 59%
    10:00 +12°C° 0 mm 3 mps 764 mmHg 52%
    11:00 +14°C° 0 mm 2 mps 764 mmHg 45%
    12:00 +15°C° 0 mm 1 mps 764 mmHg 38%
    13:00 +15°C° 0 mm 2 mps 763 mmHg 38%
    14:00 +15°C° 0 mm 2 mps 763 mmHg 39%
    15:00 +15°C° 0 mm 2 mps 763 mmHg 39%
    16:00 +14°C° 0 mm 2 mps 763 mmHg 44%
    17:00 +12°C° 0 mm 3 mps 763 mmHg 49%
    18:00 +10°C° 0 mm 3 mps 764 mmHg 54%
    19:00 +10°C° 0 mm 3 mps 764 mmHg 56%
    20:00 +8°C° 0 mm 4 mps 764 mmHg 59%
    21:00 +8°C° 0 mm 4 mps 765 mmHg 61%
    22:00 +8°C° 0 mm 4 mps 765 mmHg 62%
    23:00 +7°C° 0 mm 4 mps 764 mmHg 63%
    Show more